{"data":{"norad_id":68664,"intl_designator":"2026-077C","name":"STARLINK-37153","alt_names":[],"object_type":"PAYLOAD","status":"ACTIVE","operator":null,"country":"US","launch_date":"2026-04-11","launch_site_code":"AFWTR","launch_vehicle":null,"mission":null,"orbit_class":"UNKNOWN","rcs_meters":null,"size_class":null,"mass_kg":null,"dimensions":null,"purposes":["comms"],"wikipedia_slug":null,"has_3d_model":false,"image_url":null,"decayed_at":null,"tle_current":{"epoch":"2026-09-19T10:08:34.083744Z","epoch_age_seconds":136985,"freshness":"FRESH","line1":"1 68664U 26077C   26262.42261671  .00020974  00000+0  64994-3 0  9995","line2":"2 68664  97.2844 132.2688 0001614 100.1085 260.0340 15.33456799 24848","mean_motion":15.33456799,"eccentricity":0.0001614,"inclination_deg":97.2844,"raan_deg":132.2688,"arg_perigee_deg":100.1085,"mean_anomaly_deg":260.034,"bstar":0.00064994,"rev_number":2484,"period_min":93.90548210677,"perigee_km":464.40350486636,"apogee_km":466.6126334947,"semimajor_km":6843.6450691805,"source":"CELESTRAK","updated_at":"2026-09-20T09:00:43.949747Z"}}}